Regional Weather Roundup
Issued by NWS San Angelo, TX

Home | Current Version | Previous Version | Text Only | Print | Product List | Glossary On
Versions: 1 2 3 4 5 6 7 8 9 10 11 12 13 14 15 16 17 18 19 20 21 22 23 24 25 26 27 28 29 30 31 32 33 34 35 36 37 38 39 40 41 42 43 44 45 46 47 48 49 50
000
ASUS44 KSJT 051411
RWRSJT
WEST CENTRAL TEXAS REGIONAL WEATHER ROUNDUP
NATIONAL WEATHER SERVICE SAN ANGELO TX
900 AM CDT THU MAY 05 2016

NOTE: "FAIR" INDICATES FEW OR NO CLOUDS BELOW 12,000 FEET WITH NO
SIGNIFICANT WEATHER AND/OR OBSTRUCTIONS TO VISIBILITY.

TXZ049-054-064>066-071>073-076>078-098-099-113-114-127-128-139-140-
154-155-168>170-051500
...LOCATIONS ACROSS WEST CENTRAL TEXAS...

CITY           SKY/WX    TMP DP  RH WIND       PRES   REMARKS
SAN ANGELO     SUNNY     61  45  55 W3        30.12R
ABILENE        SUNNY     65  49  56 NE5       30.13R
DYESS AFB      SUNNY     62  50  65 N7        30.12R
JUNCTION       SUNNY     53  43  68 CALM      30.13R
SWEETWATER     SUNNY     70  42  37 SW6       30.16R
BROWNWOOD      SUNNY     63  54  72 N5        30.13R
COLEMAN        NOT AVBL
SONORA         SUNNY     59  43  55 CALM      30.18R
OZONA          FAIR      57  41  54 CALM      30.18R
BRADY          NOT AVBL
$$

TEXAS PANHANDLE/OKLAHOMA PANHANDLE

CITY           SKY/WX    TMP DP  RH WIND       PRES   REMARKS
AMARILLO       SUNNY     61  37  41 S6        30.17S
BORGER         SUNNY     60  45  57 VRB3      30.16R
CANADIAN       SUNNY     55  50  84 CALM      30.16R
DALHART        SUNNY     60  44  55 S5        30.17R
DUMAS          SUNNY     59  46  61 S6        30.15F
GUYMON         NOT AVBL
HEREFORD       SUNNY     55  42  62 N9        30.18R
PAMPA          SUNNY     64  49  59 S10       30.17S
PERRYTON       SUNNY     62  51  67 S8        30.16R
$$

SOUTHERN PANHANDLE/SOUTH PLAINS/ROLLING PLAINS

CITY           SKY/WX    TMP DP  RH WIND       PRES   REMARKS
LUBBOCK        MOSUNNY   69  34  27 SW9       30.16R
SNYDER           N/A     63  44  51 W3        30.14R
CHILDRESS      SUNNY     65  46  50 SE10      30.14R
SEMINOLE       SUNNY     64  35  34 CALM      30.18R
$$

PERMIAN BASIN

CITY           SKY/WX    TMP DP  RH WIND       PRES   REMARKS
MIDLAND        SUNNY     67  35  30 CALM      30.16R
ODESSA         MOSUNNY   68  34  28 CALM      30.17R
WINK           CLOUDY    63  34  33 CALM      30.13R
$$

FAR WEST/SOUTHWEST MOUNTAINS/TRANS PECOS

CITY           SKY/WX    TMP DP  RH WIND       PRES   REMARKS
ALPINE         MOSUNNY   65  31  27 CALM      30.27R
DRYDEN           N/A     72  35  25 NE6       30.12R
EL PASO        PTSUNNY   69  23  17 N3        30.13R
FORT STOCKTON  MOSUNNY   68  37  32 SW8       30.15R
GUADALUPE PASS CLOUDY    67  26  21 NE12      30.25R
MARFA          CLOUDY    64  31  28 NE5       30.24R
PECOS          CLOUDY    57  27  31 CALM      30.14R
$$

DALLAS/FORT WORTH METROPLEX

CITY           SKY/WX    TMP DP  RH WIND       PRES   REMARKS
DFW AIRPORT    SUNNY     69  52  54 N5        30.09R
FTW MEACHAM    SUNNY     70  47  43 CALM      30.10R
DAL-EXECUTIVE  SUNNY     69  49  48 NE6       30.08R
GRAND PRAIRIE  SUNNY     66  52  59 N5        30.10R
ADDISON        SUNNY     68  50  52 N5        30.09S
MESQUITE       SUNNY     64  54  68 N6        30.09R
LANCASTER      SUNNY     66  46  48 N6        30.09S
$$

NORTH CENTRAL TEXAS

CITY           SKY/WX    TMP DP  RH WIND       PRES   REMARKS
SHRMAN/DENISON SUNNY     58  50  74 CALM      30.12R
GAINESVILLE    SUNNY     64  49  57 CALM      30.13R
BRIDGEPORT     SUNNY     64  55  73 CALM      30.13R
DENTON         SUNNY     65  52  62 N3        30.10R
WAXAHACHIE     SUNNY     67  49  52 NE3       30.10S
GRANBURY       SUNNY     64  56  74 CALM      30.12R
$$

WESTERN NORTH TEXAS

CITY           SKY/WX    TMP DP  RH WIND       PRES   REMARKS
WICHITA FALLS  SUNNY     64  52  64 CALM      30.12R
VERNON         SUNNY     65  47  52 CALM      30.13R
BRECKENRIDGE   SUNNY     64  53  69 CALM      30.12R
COMANCHE       SUNNY     66  52  59 CALM      30.12R
$$

CENTRAL AND SOUTH CENTRAL TEXAS

CITY           SKY/WX    TMP DP  RH WIND       PRES   REMARKS
AUSTIN/BERGSTM MOSUNNY   67  55  65 NE8       30.08R
WACO           SUNNY     67  54  63 N5        30.09R
HILLSBORO      SUNNY     67  49  51 NE5       30.10R
TEMPLE         SUNNY     66  57  72 N3        30.09R
KILLEEN-GRAY   SUNNY     68  54  60 NE8       30.09R
FORT HOOD      SUNNY     67  52  57 NE6       30.08R
GEORGETOWN     SUNNY     68  52  56 NW3       30.09R
LAGO VISTA     FAIR      71  51  50 NE8       30.10R
SAN MARCOS     SUNNY     64  54  68 CALM      30.08R
NEW BRAUNFELS  SUNNY     69  54  58 NW3       30.06R
RANDOLPH AFB   SUNNY     70  53  53 CALM      30.08R
SAN ANTONIO    MOSUNNY   69  51  52 CALM      30.09R
STINSON        MOSUNNY   69  55  60 S3        30.07R
PLEASANTON     NOT AVBL
LA GRANGE        N/A     67  59  76 CALM      30.04F
GIDDINGS       SUNNY     68  54  61 N5        30.10S
$$

EAST TEXAS

CITY           SKY/WX    TMP DP  RH WIND       PRES   REMARKS
PARIS          SUNNY     63  45  51 N7        30.09R
CLARKSVILLE    NOT AVBL
TYLER          SUNNY     66  51  58 N5        30.07R
LONGVIEW       SUNNY     65  52  62 N5        30.05R
PALESTINE      SUNNY     66  57  72 CALM      30.08R
NACOGDOCHES    SUNNY     66  52  59 N3        30.05R
$$

TEXAS HILL COUNTRY AND EDWARDS PLATEAU

CITY           SKY/WX    TMP DP  RH WIND       PRES   REMARKS
LLANO          SUNNY     61  52  72 CALM      30.14R
HORSESHOE BAY  FAIR      62  49  62 CALM      30.10R
KERRVILLE      SUNNY     57  50  77 CALM      30.12S
FREDERICKSBRG  SUNNY     59  50  72 CALM      30.11S
ROCKSPRINGS    SUNNY     70  43  37 CALM      30.17R
HONDO          SUNNY     67  49  52 CALM      30.12R
UVALDE         SUNNY     69  48  46 E5        30.12R
DEL RIO        SUNNY     67  48  50 E3        30.10R
$$

SOUTHEAST TEXAS

CITY           SKY/WX    TMP DP  RH WIND       PRES   REMARKS
COLLEGE STN    SUNNY     71  53  52 NE8       30.06R
CALDWELL       SUNNY     66  54  63 NE6       30.10R
CROCKETT       SUNNY     66  55  68 NE5       30.09R
BRENHAM        SUNNY     69  58  67 CALM      30.06S
HUNTSVILLE     SUNNY     69  55  60 VRB3      30.05R
CONROE         SUNNY     70  54  56 NE6       30.05R
HOUSTON BUSH   MOSUNNY   69  56  62 VRB6      30.04R
HOUSTON HOBBY  MOSUNNY   73  55  53 N8        30.03R
PERLAND        SUNNY     73  58  59 N6        30.04S
WHARTON        SUNNY     68  61  78 CALM      30.05S
$$

THE UPPER TEXAS COAST

CITY           SKY/WX    TMP DP  RH WIND       PRES   REMARKS
ORANGE         SUNNY     68  52  55 N5        30.03R
PORT ARTHUR    SUNNY     71  54  54 N10       30.01R
GALVESTON      SUNNY     72  61  68 NW7       30.03R
ANGLETON       SUNNY     72  62  71 N8        30.04R
BAY CITY       SUNNY     69  62  76 W6        30.04S
$$

TEXAS COASTAL BEND, RIO GRANDE PLAINS DEEP SOUTH TEXAS

CITY           SKY/WX    TMP DP  RH WIND       PRES   REMARKS
VICTORIA       MOSUNNY   70  59  68 W7        30.06R
BEEVILLE       FAIR      73  58  60 NW3       30.08R
ROCKPORT       SUNNY     72  59  63 W8        30.06S
PORT ARANSAS   SUNNY     73  63  72 W9        30.07R
PORT LAVACA    MOSUNNY   69  63  82 W6        30.06S
CORPUS CHRISTI MOSUNNY   70  58  65 VRB7      30.07R
KINGSVILLE NAS MOSUNNY   69  60  73 CALM      30.06S
COTULLA        SUNNY     74  50  42 N3        30.09R
LAREDO         SUNNY     72  54  53 S6        30.07R
BROWNSVILLE    SUNNY     72  61  68 MISG      30.06R
PORT ISABEL    SUNNY     73  63  70 SW9       30.05R
HEBBRONVILLE   SUNNY     75  50  41 SW8       30.08R
MCALLEN        SUNNY     79  55  43 S7        30.06R
WESLACO        SUNNY     74  56  53 SW8       30.05S
FALFURRIAS     SUNNY     71  52  51 S3        30.06S
EDINBURG       SUNNY     76  53  44 SW3       30.07R
$$




USA.gov is the U.S. government's official web portal to all federal, state and local government web resources and services.